Погода Облучье

Погода Облучье : погода сейчас, прогноз погоды и архив. Всё, что Вы хотите узнать о погоде Облучье!

Хотите узнать прогноз погоды Облучье? Тогда Вам сюда: Погода Облучье

Поиск расширенной информации на нашем сайте:

Другие новости

Новости СМИ2

Главная страница сайта

Новости сайта

03.07.2017

Напоминаем, что на нашем специализированном сайте Метеоцентр.Азия вы можете получить высокодетализированные автоматические прогнозы погоды по пунктам России, СНГ и мира в авиационном формате (включающие направление и скорость ветра, видимость, явления погоды, количество и форму облачности, нижнюю и верхнюю границу облачности).


Погода Облучье - сегодня

Время (UTC), дата Ветер
(°,м/с) 
Видим.   Явления Облачность Т
(°С)
Тd
(°С)
f(%) Тe
(°С)
Pmin
(гПа)
dP
(гПа)
Po
(мм)
O2
(г/м3)
Тmin Tmax R s Состояние
почвы
18 20.08.17 010 (С) 20000 м    ясно 
+16.4 +16.1 98 +28  1008.8  -0.4  734  275           
21 20.08.17 030 (СВ) 20000 м    ясно 
+14.7 +14.4 98 +24  1008.8  -0.2  733  277  +14.6        сухая 
00 21.08.17 180 (Ю) 20000 м    ясно 
+24.2 +18.4 70 +40  1006.8  -0.9  733  267  +14.5         
03 21.08.17 160 (Ю) 20000 м    3/3 1000 м 
[Cu hum]
+28 +17 51 +41  1004.7  -1.7  731  264           
06 21.08.17 150 (ЮВ) 20000 м    4/4 1000 м 
[Cu hum]
+29.1 +16.4 46 +41  1002.4  -2.1  730  262           
09 21.08.17 150 (ЮВ) 3{11}  20000 м    4/3 600 м кучево-дожд., верхняя 
[Cb cap|Ci fib]
+26.4 +17.8 59 +41  1002.2  -0.4  730  264    +29.7       
12 21.08.17 160 (Ю) 20000 м    6/0 верхняя 
[Ci fib]
+22.4 +17 72 +36  1002.8  0.2  730  268           
15 21.08.17 200 (Ю) 20000 м    ясно 
+19.9 +17.9 88 +36  1002.6  -0.4  729  270           
18 21.08.17 180 (Ю) 1{10}  10 км  слаб. ливневой дождь, в посл. час гроза  10/10 600 м кучево-дожд. 
[Cb cap]
+17.1 +16.8 98 +32  1002.5  -0.3  729  273           
21 21.08.17 020 (С) 20000 м  {ливн. осадки}  10/4 300 м верхняя 
[St|Ci fib]
+15.7 +15.5 99 +27  1003.6  0.8  730  275  +15.7      влажная 
00 22.08.17 190 (Ю) 20000 м  {ливн. осадки}  10/10 600 м кучево-дожд. 
[Cb cap]
+21.1 +18.5 85 +37  1003.5  0.5  730  269  +15.6         
03 22.08.17 280 (З) 20000 м    6/5 1000 м верхняя 
[Cu hum|Ci ing]
+25.2 +15.9 56 +36  1003  -0.1  730  266           
06 22.08.17 290 (З) 20000 м    8/6 1000 м верхняя 
[Cu Sc|Ci ing]
+26.5 +13 43 +33  1002.1  -0.8  729  265           
09 22.08.17 270 (З) 20000 м    9/4 1000 м средняя, верхняя 
[Sc diur, vesp|Ac cast|Ci fib]
+22.6 +15.2 63 +32  1002.9  0.4  730  268    +26.8       
12 22.08.17 360 (С) 20000 м    8/0 верхняя 
[Ci fib]
+15.5 +15.1 97 +27  1005.2  0.4  731  275           
15 22.08.17 010 (С) 20000 м    10/0 верхняя 
[Ci fib]
+13.3 +13 98 +21  1006  0.5  731  278           
18 22.08.17 010 (С) 10 км    4/0 верхняя 
[Ci fib]
+11.3 +11 98 +15  1006.2  731  281           
21 22.08.17 010 (С) 10 км    3/0 верхняя 
[Ci fib]
+10 +9.6 97 +12  1006.9  0.5  732  283  +10        влажная 
00 23.08.17 010 (С) 10 км    6/0 верхняя 
[Ci fib]
+18 +12.4 70 +24  1005.8  -0.2  731  274           
03 23.08.17 270 (З) 10 км    10/0 верхняя 
[Cs]
+21.5 +11.7 54 +26  1004.6  -0.9  731  271           
06 23.08.17 270 (З) 20000 м    8/0 средняя, верхняя 
[Ac trans|Ci fib]
+22.8 +11.5 49 +27  1003.3  -1.1  730  269           
09 23.08.17 270 (З) 20000 м    10/0 средняя, верхняя 
[Ac trans|Ci fib]
+19.3 +14.9 76 +30  1003.3  -0.3  730  271    +23.1       
12 23.08.17 360 (С) 10 км    10/0 средняя 
[Ac As]
+16.1 +15.1 94 +27  1003.4  0.1  730  274           
15 23.08.17 010 (С) 10 км    10/0 средняя 
[Ac As]
+15.4 +14.6 95 +25  1003.5  730  275           
18 23.08.17 010 (С) 10 км    6/0 средняя 
[Ac trans]
+11.8 +11.6 99 +17  1003.2  -0.7  729  279           
Время (UTC), дата Ветер
(°,м/с) 
Видим.   Явления Облачность Т
(°С)
Тd
(°С)
f(%) Тe
(°С)
Pmin
(гПа)
dP
(гПа)
Po
(мм)
O2
(г/м3)
Тmin Tmax R s Состояние
почвы

Для получения пояснительной информации подведите курсор к названию столбца.

ПОГОДА Облучье - архив

Всё, что Вы хотите узнать о погоде Облучье - удобно и подробно!

Выберите нужную дату (начиная с 1 января 2015* года) и нажмите кнопку "Найти".
Будут отображены архивные сводки погоды по пункту Облучье, начиная с указанной даты.


Отображать данные в формате CSV (для использования в таблицах Excel)


Внимание! Наш архив погоды предназначен исключительно для личного некоммерческого использования в познавательных целях. Если Вам необходимы официальные справки о состоянии погоды (для производственных, юридических, коммерческих и т.п. целей), обращайтесь в органы Росгидромета.

*Примечание: данная дата относится к архиву по метеостанциям СССР (Россия, СНГ, Балтия).
Архив по метеостанциям Зарубежной Европы и Азии (кроме Китая) хранится 10 дней, по другим регионам земного шара (Китай, Африка, Америка, Австралия, Океания) - 1 день.

Облучье - район местоположения метеостанции


Название, широта, долгота, высота метеостанции:
Облучье 49°ш. 131.1°д. 257 м над ур. моря [Российская Федерация]

Дополнительная информация

В oтличие oт бoльшинства пoгoдных сайтoв мы публикуем пoдрoбную метеoинфoрмацию в детальнoм прoфессиoнальнoм фoрмате.

Характеристики температуры и влажнoсти вoздуха измеряются на высoте 2 м в тени вдали oт зданий и деревьев.
Скoрoсть ветра измеряется на высoте 10 м (на урoвне рoста челoвека скoрoсть ветра ниже в 1.5-2 раза). Если метеoстанция нахoдится в гoрoде или в лесу, тo скoрoсть ветра занижена на 2-4 м/с пo сравнению с oткрытым местoм. Скoрoсть ветра над акватoриями крупных рек и oзёр, а также на вершинах хoлмoв на 2-5 м/с выше, чем в oбычных услoвиях.
Атмoсфернoе давление в разных тoчках местнoсти мoжет значительнo oтличаться oт давления на метеoстанции, в зависимoсти oт услoвий рельефа (при пoдъёме на 10 м давление пoнижается примернo на 1 мм рт.ст.).